PHKAY FPST-FPPR

Flight info

Callsign PHKAY
Flight time 0h 35m
Altitude 9500
Route VFR DCT
Aircraft BE36/L-VGDW/C

Departure

Time 2026-04-27 18:10
Airport São Tomé International Airport (FPST)

Arrival

Time 2026-04-27 18:46
Airport Principe Airport (FPPR)
Time Latitude Longitude Altitude Speed Heading
2026-04-27 18:03 0.37555 6.71325 36 ft 0 kts 189°
2026-04-27 18:07 0.37552 6.71323 36 ft 1 kts 241°
2026-04-27 18:07 0.37570 6.71318 36 ft 5 kts 317°
2026-04-27 18:07 0.37593 6.71278 36 ft 7 kts 336°
2026-04-27 18:08 0.37647 6.71280 36 ft 8 kts 13°
2026-04-27 18:08 0.37704 6.71294 36 ft 8 kts 13°
2026-04-27 18:08 0.37725 6.71299 36 ft 3 kts 14°
2026-04-27 18:08 0.37786 6.71302 36 ft 10 kts 30°
2026-04-27 18:09 0.37790 6.71317 36 ft 0 kts 104°
2026-04-27 18:09 0.37780 6.71358 36 ft 29 kts 104°
2026-04-27 18:09 0.37683 6.71767 36 ft 86 kts 104°
2026-04-27 18:10 0.37534 6.72419 200 ft 98 kts 105°
2026-04-27 18:10 0.37559 6.73094 564 ft 101 kts 79°
2026-04-27 18:10 0.37966 6.73696 861 ft 113 kts 44°
2026-04-27 18:10 0.38734 6.73994 1177 ft 119 kts 10°
2026-04-27 18:11 0.39535 6.74051 1595 ft 118 kts
2026-04-27 18:11 0.40364 6.74109 1971 ft 123 kts
2026-04-27 18:11 0.41222 6.74161 2372 ft 125 kts
2026-04-27 18:11 0.42107 6.74210 2792 ft 126 kts
2026-04-27 18:12 0.42959 6.74352 3208 ft 124 kts 19°
2026-04-27 18:12 0.43779 6.74604 3630 ft 124 kts 22°
2026-04-27 18:12 0.44594 6.74872 4056 ft 123 kts 23°
2026-04-27 18:12 0.45406 6.75140 4482 ft 123 kts 23°
2026-04-27 18:13 0.46225 6.75413 4794 ft 131 kts 23°
2026-04-27 18:13 0.47170 6.75740 4852 ft 154 kts 23°
2026-04-27 18:13 0.48273 6.76135 4822 ft 174 kts 23°
2026-04-27 18:13 0.49443 6.76567 4922 ft 180 kts 23°
2026-04-27 18:14 0.50605 6.77079 5051 ft 182 kts 28°
2026-04-27 18:14 0.51753 6.77618 5178 ft 183 kts 28°
2026-04-27 18:14 0.52925 6.78170 5307 ft 184 kts 28°
2026-04-27 18:14 0.53483 6.78433 5367 ft 184 kts 28°
2026-04-27 18:15 0.54644 6.79011 5495 ft 184 kts 30°
2026-04-27 18:15 0.55780 6.79595 5621 ft 184 kts 30°
2026-04-27 18:15 0.56927 6.80186 5748 ft 184 kts 30°
2026-04-27 18:15 0.58088 6.80784 5876 ft 184 kts 30°
2026-04-27 18:16 0.59229 6.81372 6003 ft 184 kts 30°
2026-04-27 18:16 0.60386 6.81969 6131 ft 184 kts 30°
2026-04-27 18:16 0.61533 6.82562 6258 ft 184 kts 30°
2026-04-27 18:16 0.62687 6.83157 6386 ft 183 kts 30°
2026-04-27 18:17 0.63809 6.83738 6511 ft 183 kts 30°
2026-04-27 18:17 0.64970 6.84365 6641 ft 183 kts 33°
2026-04-27 18:17 0.66064 6.85005 6766 ft 182 kts 33°
2026-04-27 18:17 0.67153 6.85645 6892 ft 182 kts 33°
2026-04-27 18:18 0.68256 6.86296 7019 ft 182 kts 33°
2026-04-27 18:18 0.69345 6.86939 7144 ft 182 kts 33°
2026-04-27 18:18 0.70432 6.87582 7270 ft 182 kts 33°
2026-04-27 18:18 0.71526 6.88230 7396 ft 182 kts 33°
2026-04-27 18:19 0.72625 6.88883 7523 ft 181 kts 33°
2026-04-27 18:19 0.73703 6.89525 7648 ft 181 kts 33°
2026-04-27 18:19 0.74786 6.90187 7774 ft 181 kts 34°
2026-04-27 18:19 0.75848 6.90847 7899 ft 181 kts 34°
2026-04-27 18:20 0.76925 6.91519 8025 ft 181 kts 34°
2026-04-27 18:20 0.77992 6.92187 8151 ft 181 kts 34°
2026-04-27 18:20 0.79075 6.92866 8278 ft 180 kts 34°
2026-04-27 18:20 0.80140 6.93537 8403 ft 180 kts 34°
2026-04-27 18:21 0.81210 6.94212 8529 ft 180 kts 34°
2026-04-27 18:21 0.82274 6.94885 8655 ft 180 kts 34°
2026-04-27 18:21 0.83332 6.95557 8780 ft 180 kts 34°
2026-04-27 18:21 0.84401 6.96237 8906 ft 180 kts 34°
2026-04-27 18:22 0.85468 6.96918 9032 ft 180 kts 34°
2026-04-27 18:22 0.86517 6.97590 9156 ft 180 kts 34°
2026-04-27 18:22 0.87592 6.98280 9268 ft 180 kts 34°
2026-04-27 18:22 0.88665 6.98971 9292 ft 184 kts 34°
2026-04-27 18:23 0.89758 6.99676 9295 ft 188 kts 34°
2026-04-27 18:23 0.90877 7.00399 9295 ft 189 kts 34°
2026-04-27 18:23 0.91990 7.01119 9295 ft 190 kts 34°
2026-04-27 18:23 0.93110 7.01844 9294 ft 191 kts 34°
2026-04-27 18:24 0.94224 7.02565 9294 ft 191 kts 34°
2026-04-27 18:24 0.95347 7.03293 9294 ft 191 kts 34°
2026-04-27 18:24 0.96453 7.04010 9294 ft 191 kts 34°
2026-04-27 18:24 0.97577 7.04741 9293 ft 190 kts 34°
2026-04-27 18:25 0.98697 7.05462 9293 ft 190 kts 33°
2026-04-27 18:25 0.99817 7.06151 9293 ft 190 kts 32°
2026-04-27 18:25 1.00970 7.06818 9293 ft 190 kts 30°
2026-04-27 18:25 1.02136 7.07452 9287 ft 191 kts 25°
2026-04-27 18:26 1.03272 7.08175 9293 ft 194 kts 29°
2026-04-27 18:26 1.04412 7.08924 9294 ft 197 kts 29°
2026-04-27 18:26 1.05558 7.09677 9294 ft 198 kts 29°
2026-04-27 18:26 1.06746 7.10417 9294 ft 198 kts 25°
2026-04-27 18:27 1.07973 7.11055 9294 ft 198 kts 22°
2026-04-27 18:27 1.09224 7.11674 9294 ft 199 kts 22°
2026-04-27 18:27 1.10462 7.12284 9295 ft 200 kts 22°
2026-04-27 18:27 1.11715 7.12901 9295 ft 200 kts 22°
2026-04-27 18:28 1.12982 7.13523 9296 ft 201 kts 22°
2026-04-27 18:28 1.14239 7.14140 9296 ft 201 kts 22°
2026-04-27 18:28 1.15545 7.14783 9296 ft 201 kts 22°
2026-04-27 18:28 1.16759 7.15382 9287 ft 188 kts 22°
2026-04-27 18:29 1.17895 7.15952 9289 ft 176 kts 22°
2026-04-27 18:29 1.18964 7.16494 9290 ft 166 kts 22°
2026-04-27 18:29 1.19972 7.17012 9291 ft 159 kts 22°
2026-04-27 18:29 1.20951 7.17518 9299 ft 153 kts 22°
2026-04-27 18:30 1.21870 7.18000 9300 ft 146 kts 22°
2026-04-27 18:30 1.22776 7.18479 9301 ft 141 kts 22°
2026-04-27 18:30 1.23632 7.18934 9302 ft 139 kts 22°
2026-04-27 18:30 1.24491 7.19394 9303 ft 136 kts 22°
2026-04-27 18:31 1.25324 7.19843 9303 ft 134 kts 22°
2026-04-27 18:31 1.26150 7.20289 9304 ft 134 kts 22°
2026-04-27 18:31 1.26961 7.20728 9302 ft 130 kts 22°
2026-04-27 18:31 1.27744 7.21156 9302 ft 126 kts 22°
2026-04-27 18:32 1.28510 7.21578 9302 ft 123 kts 22°
2026-04-27 18:32 1.29244 7.21984 9302 ft 120 kts 22°
2026-04-27 18:32 1.29976 7.22392 9302 ft 117 kts 22°
2026-04-27 18:32 1.30681 7.22787 9302 ft 115 kts 22°
2026-04-27 18:33 1.31370 7.23176 9303 ft 113 kts 22°
2026-04-27 18:33 1.32063 7.23568 9303 ft 111 kts 22°
2026-04-27 18:33 1.32729 7.23947 9303 ft 109 kts 22°
2026-04-27 18:33 1.33395 7.24327 9303 ft 108 kts 22°
2026-04-27 18:34 1.34049 7.24702 9303 ft 107 kts 22°
2026-04-27 18:34 1.34704 7.25078 9303 ft 105 kts 22°
2026-04-27 18:34 1.35331 7.25441 9303 ft 104 kts 22°
2026-04-27 18:34 1.35959 7.25805 9304 ft 103 kts 22°
2026-04-27 18:35 1.36593 7.26172 9304 ft 103 kts 22°
2026-04-27 18:35 1.37217 7.26535 9304 ft 103 kts 22°
2026-04-27 18:35 1.37837 7.26894 9304 ft 102 kts 22°
2026-04-27 18:35 1.38452 7.27252 9304 ft 101 kts 22°
2026-04-27 18:36 1.39060 7.27608 9303 ft 100 kts 22°
2026-04-27 18:36 1.39696 7.27974 9193 ft 111 kts 22°
2026-04-27 18:36 1.40408 7.28334 9083 ft 118 kts 17°
2026-04-27 18:36 1.41189 7.28669 8970 ft 125 kts 16°
2026-04-27 18:37 1.42020 7.29016 8854 ft 131 kts 16°
2026-04-27 18:37 1.42900 7.29375 8746 ft 147 kts 16°
2026-04-27 18:37 1.43936 7.29783 8648 ft 170 kts 17°
2026-04-27 18:37 1.45095 7.30228 8540 ft 185 kts 16°
2026-04-27 18:38 1.46346 7.30702 8424 ft 194 kts 16°
2026-04-27 18:38 1.47639 7.31186 8306 ft 200 kts 16°
2026-04-27 18:38 1.48987 7.31686 7959 ft 213 kts 17°
2026-04-27 18:38 1.50447 7.32219 7582 ft 221 kts 17°
2026-04-27 18:39 1.51903 7.32744 7213 ft 225 kts 17°
2026-04-27 18:39 1.53411 7.33283 6836 ft 228 kts 17°
2026-04-27 18:39 1.54907 7.33812 6464 ft 229 kts 17°
2026-04-27 18:39 1.56429 7.34344 6090 ft 230 kts 17°
2026-04-27 18:40 1.57926 7.34861 5749 ft 229 kts 17°
2026-04-27 18:40 1.59423 7.35371 5387 ft 225 kts 16°
2026-04-27 18:40 1.60983 7.35898 4979 ft 215 kts 17°
2026-04-27 18:40 1.62364 7.36357 4589 ft 198 kts 17°
2026-04-27 18:41 1.63606 7.36629 4184 ft 170 kts 358°
2026-04-27 18:41 1.64729 7.36559 3791 ft 154 kts 348°
2026-04-27 18:41 1.65761 7.36381 3405 ft 146 kts 344°
2026-04-27 18:41 1.66729 7.36136 3023 ft 141 kts 342°
2026-04-27 18:42 1.67669 7.35886 2642 ft 138 kts 342°
2026-04-27 18:42 1.68291 7.35717 2407 ft 135 kts 342°
2026-04-27 18:42 1.69439 7.35402 2317 ft 131 kts 342°
2026-04-27 18:42 1.70362 7.35147 2314 ft 144 kts 342°
2026-04-27 18:43 1.71406 7.35255 2304 ft 155 kts 27°
2026-04-27 18:43 1.72121 7.36058 2302 ft 157 kts 72°
2026-04-27 18:43 1.72101 7.37161 2307 ft 158 kts 113°
2026-04-27 18:43 1.71698 7.38225 2361 ft 161 kts 112°
2026-04-27 18:44 1.71290 7.39261 2364 ft 157 kts 112°
2026-04-27 18:44 1.70889 7.40267 2344 ft 156 kts 114°
2026-04-27 18:44 1.70303 7.41218 2189 ft 148 kts 136°
2026-04-27 18:44 1.69505 7.41446 1766 ft 104 kts 197°
2026-04-27 18:45 1.68905 7.41222 1394 ft 88 kts 200°
2026-04-27 18:45 1.68298 7.41127 1153 ft 84 kts 186°
2026-04-27 18:45 1.67698 7.41114 872 ft 86 kts 184°
2026-04-27 18:45 1.67117 7.41110 669 ft 80 kts 183°
2026-04-27 18:46 1.66629 7.41107 593 ft 55 kts 180°
2026-04-27 18:46 1.66384 7.41108 593 ft 13 kts 180°
2026-04-27 18:46 1.66373 7.41102 593 ft 3 kts
2026-04-27 18:46 1.66426 7.41106 593 ft 15 kts
2026-04-27 18:47 1.66473 7.41120 593 ft 2 kts 49°
2026-04-27 18:47 1.66479 7.41138 593 ft 3 kts 75°
2026-04-27 18:47 1.66486 7.41162 593 ft 4 kts 75°
2026-04-27 18:47 1.66502 7.41189 593 ft 6 kts 29°
2026-04-27 18:48 1.66525 7.41213 593 ft 3 kts 172°
2026-04-27 18:48 1.66520 7.41211 593 ft 0 kts 258°